{"data":{"norad_id":46955,"intl_designator":"2020-085AC","name":"DRAGRACER 2 (AUGURY)","alt_names":[],"object_type":"PAYLOAD","status":"ACTIVE","operator":null,"country":"US","launch_date":"2020-11-20","launch_site_code":"RLLB","launch_vehicle":null,"mission":null,"orbit_class":"UNKNOWN","rcs_meters":null,"size_class":null,"mass_kg":null,"dimensions":null,"purposes":[],"wikipedia_slug":null,"has_3d_model":false,"image_url":null,"decayed_at":null,"tle_current":{"epoch":"2026-05-25T02:06:35.347104Z","epoch_age_seconds":78157,"freshness":"FRESH","line1":"1 46955U 20085AC  26145.08790911  .00034395  00000+0  29524-3 0  9995","line2":"2 46955  97.5817 339.3564 0004113   6.9667 353.1650 15.69304160308249","mean_motion":15.6930416,"eccentricity":0.0004113,"inclination_deg":97.5817,"raan_deg":339.3564,"arg_perigee_deg":6.9667,"mean_anomaly_deg":353.165,"bstar":0.00029524,"rev_number":30824,"period_min":91.760414373718,"perigee_km":358.11659829883,"apogee_km":363.6601205595,"semimajor_km":6739.0253594292,"source":"CELESTRAK","updated_at":"2026-05-25T13:37:56.392173Z"}}}